カタログに戻る

FENGYUN 1C DEB

運用中SSO
NORAD 31381·DEBRIS·🇨🇳 China

打ち上げ May 10, 1999 から Taiyuan Satellite Launch Center

Loading…

次のパス (今後24時間)

TLE

経年Source: Space-Track

元期: Sep 6, 2026, 11:54 UTC

1 31381U 99025BSM 26249.49630712  .00000354  00000-0  10828-3 0  9990
2 31381  98.4774 334.5184 0194730 312.3501  46.1334 14.37924240 12442

AllMySatでFENGYUN 1C DEBをリアルタイム追跡

Download on the App Store